Location: Peterborough
(44.3091°N, 78.3197°W)
Time: 19:41:42
(UTC-04:00)

Vanguard 2 Rocket - Pass Details

Date: 24 March 2023
Orbit: 554 x 3314 km, 32.9° (Epoch: 06 June)

Event Time Altitude Azimuth Distance (km) Brightness Sun altitude
Rises 00:38:44 0° 266° (W) 4,863 10.7 -43.5°
Reaches altitude 10° 00:41:37 10° 260° (W) 4,192 10.3 -43.6°
Enters shadow 00:43:44 18° 254° (WSW) 3,773 9.9 -43.7°
